Preview of NWS' New Version of Forecast
This preview is not operational and should not be used for support decisions.

Regional Weather Roundup (RWR)

Issued by National Weather Service (NWS)

                            
000
ASUS44 KMEG 211300
RWRTN 
TENNESSEE HOURLY STATE WEATHER ROUNDUP
NATIONAL WEATHER SERVICE MEMPHIS TN
800 AM CDT SAT SEP 21 2019

TNZ002-004-019-021-049-052-054-088>092-211400-
WEST TENNESSEE
  
CITY           SKY/WX    TMP DP  RH WIND       PRES   REMARKS
MEMPHIS INTL   FAIR      73  59  61 S8        30.22R                  
NWS MEMPHIS      N/A     70 N/A N/A MISG        N/A                   
JACKSON        FAIR      69  61  75 S3        30.25R                  
DYERSBURG      FAIR      70  64  81 S5        30.24R                  
$$

TNZ008-025-027-028-033-062-065-066-211400-
NORTH MIDDLE TENNESSEE
  
CITY           SKY/WX    TMP DP  RH WIND       PRES   REMARKS
NASHVILLE      FAIR      71  57  61 S7        30.29R                  
CLARKSVILLE    FAIR      69  61  75 CALM      30.27R                  
SMYRNA         FAIR      68  60  75 SE5       30.30R                  
CROSSVILLE     FAIR      66  52  60 VRB6      30.37R                  
$$

TNZ061-075-076-078-094-096-097-211400-
SOUTH MIDDLE TENNESSEE
  
CITY           SKY/WX    TMP DP  RH WIND       PRES   REMARKS
$$

TNZ017-018-042-046-047-211400-
NORTHEAST TENNESSEE
  
CITY           SKY/WX    TMP DP  RH WIND       PRES   REMARKS
TRI CITIES     FAIR      64  61  90 CALM      30.37R                  
$$

TNZ012-013-036-069-073-074-211400-
CENTRAL EAST TENNESSEE
  
CITY           SKY/WX    TMP DP  RH WIND       PRES   REMARKS
KNOXVILLE      FAIR      69  61  75 CALM      30.33R                  
OAK RIDGE      FAIR      68  60  75 CALM      30.35R                  
$$

TNZ083-085-099-211400-
SOUTHEAST TENNESSEE
  
CITY           SKY/WX    TMP DP  RH WIND       PRES   REMARKS
CHATTANOOGA    FAIR      65  59  81 CALM      30.34R                  
$$

SKY/WX REPORTED AS FAIR MEANS FEW OR NO CLOUDS BELOW
12 THOUSAND FEET.